Flag for Germany Weather past 2 weeks in Zwickau, Saxony, Germany

Now
60 °F

Passing clouds.


Feels Like: 60 °F
Forecast: 53 / 73 °F
Wind: 2 mph from East

Location: Gera-Leumnitz

Current Time: Sep 16, 2014 at 3:07:38 AM

Latest Report: Sep 16, 2014 at 2:00 AM


Visibility: 0 mi

Pressure: 30.04 "Hg

Humidity: 98%

Dew point: 60 °F

Location of ZwickauLocation

Historic Weather in Zwickau — Graph

°F

Zwickau temperature yesterday

Maximum temperature yesterday: 69 °F (at 5:00 PM)
Minimum temperature yesterday: 59 °F (at 9:00 AM)
Average temperature yesterday: 62 °F

Past Weeks' High & Low Weather Summary

 TemperatureHumidityPressure
High78 °F (Sep 6, 3:00 PM)99% (Sep 4, 8:00 AM)30.25 "Hg (Sep 4, 8:00 AM)
Low52 °F (Sep 1, 3:00 AM)53% (Sep 6, 5:00 PM)29.85 "Hg (Sep 6, 5:00 PM)
Average60 °F88%30.05 "Hg
* Reported Sep 1 2:00 AM — Sep 16 2:00 AM, Zwickau, Weather by CustomWeather, © 2014

Note: Actual official high and low records may vary slightly from our data, if they occured in-between our weather recording intervals... More about our weather records

Advertising

Zwickau weather history for previous 24 hours

 ConditionsComfort  
Time TempWeatherWind HumidityBarometerVisibility
2:00 AM
Sep 16
60 °FPassing clouds.2 mph98%30.04 "Hg0 mi
1:00 AM60 °FPassing clouds.1 mph98%30.05 "Hg1 mi
12:00 AM60 °FPassing clouds.1 mph97%30.05 "Hg1 mi
11:00 PM
Sep 15
61 °FFog.1 mph95%30.04 "Hg1 mi
10:00 PM63 °FFog.5 mph93%30.04 "Hg2 mi
9:00 PM64 °FFog.5 mph91%30.04 "Hg1 mi
8:00 PM65 °FPassing clouds.3 mph90%30.03 "Hg6 mi
7:00 PM67 °FPartly sunny.5 mph86%30.03 "Hg9 mi
6:00 PM68 °FPartly sunny.5 mph79%30.03 "Hg10 mi
5:00 PM69 °FPartly sunny.5 mph77%30.03 "Hg11 mi
4:00 PM68 °FPartly sunny.3 mph76%30.04 "Hg9 mi
3:00 PM67 °FPartly sunny.2 mph75%30.05 "Hg9 mi
2:00 PM67 °FPartly sunny.2 mph74%30.06 "Hg7 mi
1:00 PM65 °FPartly sunny.2 mph80%30.07 "Hg6 mi
12:00 PM63 °FLow clouds.1 mph92%30.08 "Hg7 mi
11:00 AM60 °FFog.2 mph99%30.08 "Hg3 mi
10:00 AM59 °FFog.2 mph99%30.08 "Hg1 mi
9:00 AM59 °FFog.5 mph99%30.07 "Hg1 mi
8:00 AM59 °FFog.2 mph99%30.07 "Hg2 mi
7:00 AM59 °FFog.3 mph99%30.06 "Hg1 mi
6:00 AM59 °FFog.2 mph99%30.06 "Hg1 mi
5:00 AM59 °FLow clouds.2 mph99%30.05 "Hg0 mi
4:00 AM59 °FLow clouds.2 mph99%30.06 "Hg1 mi
3:00 AM59 °FLow clouds.2 mph99%30.06 "Hg0 mi
Weather by CustomWeather, © 2014

See weather overviewHow to use our weather pages